Content
SEND FEEDBACK

Daily
Averages
Monthly
Summary
China

CHONGQING, CHINA


Home > Asia > China
Elevation: 1151 feet     Latitude: 29 31N     Longitude: 106 29E

WEATHER
 
SELECT A DAY
Number of Records: 133,741;   Date Range: 1/29/00 - 9/30/14
 
SHARE

PRINT THIS DATA

[ ← Previous Day ]
WEATHER ALMANAC - FEBRUARY 10, 2013
[ Next Day → ]
[ °C ]   °F
Weather ElementAverageHighLow
Temperature47.1 °F55.4 °F (3:00 pm)39.2 °F (4:00 am)
Dewpoint38.2 °F40 °F (2:00 am)35.6 °F (5:00 pm)
Humidity70.9 %93 % (4:00 am)40 % (2:00 pm)
Barometer30.11 in30.26 in (2:00 am)29.98 in (4:00 pm)
Wind Speed5.2 mph8.9 mph (6:00 pm)
Weather ElementAverage
Visibility2.9 mi
Wind DirectionESE (124 °)

Weather ElementTotal
Precipitation---
Heating Degree Days17.7 (Base 65)
Averaged from 30 records on February 10, 2013
WEATHER CONDITIONS BREAKOUT
WIND DIRECTION BREAKOUT
WEATHER BY HOUR - FEBRUARY 10, 2013
[ °C ]   °F
Local TimeTemperatureDewpointHumidityBarometerVisibilityWind DirectionWind SpeedGust SpeedPrecipitationEventsConditions
1:00 AM42.8 °F39.2 °F87 %30.21 in2.5 miNorth (350°)6.7 mphPartly Cloudy
2:00 AM45.0 °F40.0 °F78 %30.26 in2.0 miNE (40°)2.2 mphMist
2:00 AM42.8 °F39.2 °F87 %30.21 in2.5 miNNE (30°)4.5 mphScattered Clouds
3:00 AM41.0 °F37.4 °F87 %30.18 in1.2 miNNE (30°)4.5 mphScattered Clouds
4:00 AM39.2 °F37.4 °F93 %30.18 in1.6 miNorth (350°)4.5 mphScattered Clouds
5:00 AM43.0 °F40.0 °F83 %30.21 in3.0 miNW (320°)4.5 mphMist
5:00 AM41.0 °F39.2 °F93 %30.15 in1.2 miNorth (360°)6.7 mphScattered Clouds
6:00 AM41.0 °F39.2 °F93 %30.15 in1.6 miNorth (10°)6.7 mphScattered Clouds
7:00 AM41.0 °F37.4 °F87 %30.15 in1.6 miNNE (20°)6.7 mphScattered Clouds
8:00 AM43.0 °F39.0 °F82 %30.21 in2.0 miWNW (290°)2.2 mphMist
8:00 AM42.8 °F39.2 °F87 %30.15 in1.6 miNNE (20°)4.5 mphScattered Clouds
9:00 AM44.6 °F39.2 °F81 %30.15 in1.6 miNNE (20°)4.5 mphPartly Cloudy
10:00 AM46.4 °F37.4 °F71 %30.15 in1.9 miNNE (30°)4.5 mphScattered Clouds
11:00 AM50.0 °F40.0 °F60 %30.19 in2.0 miNE (40°)2.2 mphHaze
11:00 AM48.2 °F39.2 °F71 %30.15 inNorth (10°)4.5 mphScattered Clouds
12:00 PM50.0 °F39.2 °F66 %30.12 in2.5 miNorth (350°)6.7 mphHaze
1:00 PM50.0 °F37.4 °F62 %30.09 in3.1 miVariable2.2 mphHaze
2:00 PM55.0 °F38.0 °F40 %30.08 in2.0 miNW (320°)2.2 mphHaze
2:00 PM51.8 °F37.4 °F58 %30.06 in4.3 miNNE (20°)4.5 mphScattered Clouds
3:00 PM55.4 °F37.4 °F51 %30.01 in5.0 miNorth (350°)6.7 mphPartly Cloudy
4:00 PM55.4 °F39.2 °F54 %29.98 in5.0 miVariable2.2 mphPartly Cloudy
5:00 PM53.6 °F35.6 °F51 %29.98 in5.0 miNorth (10°)6.7 mph
6:00 PM51.8 °F35.6 °F54 %29.98 in5.0 miNorth (10°)8.9 mph
7:00 PM48.2 °F37.4 °F66 %30.01 in4.3 miNorth (10°)6.7 mph
8:00 PM51.0 °F38.0 °F51 %30.04 in4.0 miNorth6.7 mphHaze
8:00 PM48.2 °F37.4 °F66 %30.01 in3.7 miNorth (360°)8.9 mph
9:00 PM46.4 °F37.4 °F71 %30.04 in3.7 miNorth (10°)6.7 mph
10:00 PM46.4 °F37.4 °F71 %30.06 in3.7 miNorth (10°)6.7 mphMostly Cloudy
11:00 PM49.0 °F39.0 °F59 %30.11 in4.0 miNNW (340°)4.5 mphHaze
11:00 PM48.2 °F37.4 °F66 %30.06 in3.7 miNorth (10°)6.7 mphOvercast
Hourly data recorded from ZUCK, located miles away from Chongqing, China







STORIES FROM OUR PARTNERS